#timestamp,LO_Frequency,Hit,StdDev 
1540720815.8,286047007.3,N
1540720835.7,286047004.9,N
1540720855.5,286047000.9,N
1540720875.4,286047000.4,N
1540720895.2,286047010.4,N
1540720915.0,286047011.2,N
1540720915.9,286047011.2,N
1540720935.8,286047012.9,N
1540720955.6,286047013.7,Y
1540720975.4,286047006.1,P
1540720995.3,286047004.8,P
1540721015.1,286047009.8,P
1540721035.9,286047006.5,Y
1540721055.7,286046994.9,P
1540721075.5,286046990.2,N
1540721095.4,286046986.3,N
1540721115.2,286046982.1,N
1540721135.1,286046983.9,N
1540721136.0,286046983.9,N
1540721155.8,286046985.1,N
1540721175.6,286046986.2,N
1540721195.5,286046985.2,N
1540721215.3,286046981.7,N
1540721235.1,286046979.7,N
1540721255.9,286046983.6,N
1540721275.7,286046991.5,N
1540721295.6,286046985.5,N
1540721315.4,286046984.0,N
1540721335.2,286046984.4,N
1540721355.1,286046987.7,N
1540721356.0,286046987.7,N
1540721375.8,286046990.6,N
1540721395.6,286046995.9,N
1540721415.5,286046996.7,N
1540721435.3,286046996.2,N
1540721455.2,286047005.4,N
1540721475.9,286047004.7,N
1540721495.7,286046998.8,N
1540721515.6,286047000.7,N
1540721535.4,286046997.1,N
1540721555.2,286046994.2,N
1540721575.1,286046992.3,N
1540721576.0,286046992.3,N
1540721595.8,286046995.8,N
1540721615.7,286046994.0,N
1540721635.5,286046992.4,N
1540721655.3,286046993.4,N
1540721675.2,286046996.7,N
1540721695.0,286047004.7,N
1540721695.9,286047004.7,N
1540721715.7,286046999.3,N
1540721735.6,286046997.3,N
1540721755.4,286046997.1,N
1540721775.3,286046998.1,N
1540721795.1,286046998.6,N
1540721796.0,286046998.6,N
1540721815.8,286046997.6,N
1540721835.7,286046993.5,N
1540721855.5,286046992.4,N
1540721875.4,286046994.6,N
1540721895.2,286046994.4,N
1540721915.0,286046991.6,N
1540721915.9,286046991.6,N
1540721935.8,286046988.5,N
1540721955.6,286046990.3,N
1540721975.4,286046990.3,N
1540721995.3,286046990.8,N
1540722015.1,286046988.5,N
1540722035.9,286046993.0,N
1540722055.7,286047000.7,N
1540722075.5,286047002.0,N
1540722095.4,286047009.5,N
1540722115.2,286047012.8,N
1540722135.0,286047012.0,N
1540722136.0,286047012.0,N
1540722155.8,286047015.0,N
1540722175.6,286047011.6,N
1540722195.5,286047016.9,N
1540722215.3,286047016.1,N
1540722235.1,286047014.6,N
1540722255.9,286047015.6,N
1540722275.7,286047008.0,N
1540722295.6,286047013.9,N
1540722315.4,286047011.7,N
1540722335.2,286047007.9,N
1540722355.1,286047015.0,N
1540722356.0,286047015.0,N
1540722375.8,286047013.1,N
1540722395.6,286047018.2,N
1540722415.5,286047014.6,N
1540722435.3,286047010.3,N
1540722455.2,286047007.3,N
1540722475.9,286047003.6,N
1540722495.7,286046999.7,N
1540722515.6,286047001.9,N
1540722535.4,286047002.5,N
1540722555.2,286047003.9,N
1540722575.1,286047007.5,N
1540722576.0,286047007.5,N
1540722595.8,286047002.5,N
1540722615.7,286047003.4,N
1540722635.5,286047007.1,N
1540722655.3,286047005.4,N
1540722675.2,286047002.4,N
1540722695.9,286047002.1,N
1540722715.7,286046998.3,N
1540722735.6,286047006.9,N
1540722755.4,286047006.7,N
1540722775.3,286047001.9,N
1540722795.1,286046998.2,N
1540722796.0,286046998.2,N
1540722815.8,286046997.5,N
1540722835.7,286047005.7,N
1540722855.5,286047005.1,N
1540722875.3,286047003.5,N
1540722895.2,286047007.2,N
1540722915.0,286047000.6,N
1540722915.9,286047000.6,N
1540722935.8,286047000.0,N
1540722955.6,286046996.9,N
1540722975.4,286046991.8,N
1540722995.3,286046991.9,N
1540723015.1,286046995.6,N
1540723035.8,286046997.3,N
1540723055.7,286046993.3,N
1540723075.5,286046994.8,N
1540723095.3,286046999.6,N
1540723115.2,286046999.7,N
1540723135.0,286046999.6,N
1540723135.9,286046999.6,N
1540723155.8,286046998.6,N
1540723175.6,286046996.5,N
1540723195.4,286046999.3,N
1540723215.3,286046997.3,N
1540723235.1,286046997.4,N
1540723255.8,286047000.7,N
1540723275.7,286047004.9,N
1540723295.5,286047007.2,N
1540723315.4,286047015.5,Y
1540723335.2,286047013.9,P
1540723355.0,286047009.6,N
1540723355.9,286047009.6,N
1540723375.8,286047017.1,Y
1540723395.6,286047001.3,P
1540723415.5,286047000.2,N
1540723435.3,286046993.8,N
1540723455.1,286046995.9,N
1540723475.9,286046997.0,N
1540723495.7,286046994.9,N
1540723515.5,286046999.2,N
1540723535.4,286046994.0,N
1540723555.2,286046992.8,N
1540723575.1,286046990.6,N
1540723576.0,286046990.6,N
1540723595.8,286046990.5,N
1540723615.6,286046993.0,N
1540723635.5,286046995.0,N
1540723655.3,286046994.0,N
1540723675.1,286046993.2,N
1540723695.9,286046990.3,N
1540723715.7,286046994.0,N
1540723735.5,286046992.6,N
1540723755.4,286046991.4,N
1540723775.2,286046991.8,N
1540723795.1,286046991.7,N
1540723796.0,286046991.7,N
1540723815.8,286046994.1,N
1540723835.6,286046992.3,N
1540723855.5,286046994.6,N
1540723875.3,286047000.0,N
1540723895.1,286047004.1,N
1540723915.9,286046998.9,N
1540723935.7,286046999.1,N
1540723955.6,286047001.4,N
1540723975.4,286047004.8,N
1540723995.2,286047005.9,N
1540724015.1,286047004.2,N
1540724016.0,286047004.2,N
1540724035.8,286047002.9,N
1540724055.6,286047002.5,N
1540724075.5,286047001.6,N
1540724095.3,286046999.9,N
1540724115.2,286046999.1,N
1540724135.9,286047002.4,N
1540724155.7,286047002.7,N
1540724175.6,286047003.7,N
1540724195.4,286047002.0,N
1540724215.2,286046999.0,N
1540724235.1,286047000.8,N
1540724236.0,286047000.8,N
1540724255.8,286046998.7,N
1540724275.7,286047000.5,N
1540724295.5,286047000.4,N
1540724315.3,286047001.4,N
1540724335.2,286047000.1,N
1540724355.0,286047002.3,N
1540724355.9,286047002.3,N
1540724375.7,286047001.9,N
1540724395.6,286046999.3,N
